Rio Branco International, Brazil

5:35 PM -04 on April 28, 2017 (GMT -0400)
Presidente Medice International

Weather History for SBRB - September, 2013

Change the Weather History Date:

Friday, September 20, 2013

  Actual Average Record
Temperature  
Mean Temperature 80 °F -  
Max Temperature 92 °F 91 °F 98 °F (2010)
Min Temperature 68 °F 71 °F 60 °F (1998)
Cooling Degree Days 15    
Growing Degree Days 30 (Base 50)    
Moisture  
Dew Point 67 °F    
Average Humidity 65    
Maximum Humidity 94    
Minimum Humidity 32    
Precipitation  
Precipitation 0.00 in 0.19 in - ()
Sea Level Pressure  
Sea Level Pressure 29.90 in    
Wind  
Wind Speed 4 mph ()    
Max Wind Speed 9 mph    
Max Gust Speed -    
Visibility 8.4 miles    
Events      
Averages and records for this station are not official NWS values.
T = Trace of Precipitation, MM = Missing Value Source: Averaged Metar Reports

Daily Weather History Graph

Daily Weather History Graph

Search for Another Location

Airport or City:

Trip Planner

Search our weather history database for the weather conditions in past years. The results will help you decide how hot, cold, wet, or windy it might be!

Date:

Astronomy

Sep. 20, 2013 Rise Set
Actual Time 6:21 AM -04 6:27 PM -04
Civil Twilight 6:00 AM -04 6:48 PM -04
Nautical Twilight 5:36 AM -04 7:12 PM -04
Astronomical Twilight 5:12 AM -04 7:37 PM -04
Moon 7:38 PM -04 (9/20) 7:01 AM -04 (9/20)
Length of Visible Light 12h 47m
Length of Day
12h 05m
Full, 98% of the Moon is Illuminated
Sep 20
Full
Sep 26
Last Quarter
Oct 4
New
Oct 11
First Quarter
Oct 18
Full

Hourly Weather History & Observations

Time (-04) Temp. Heat Index Dew Point Humidity Pressure Visibility Wind Dir Wind Speed Gust Speed Precip Events Conditions
12:00 AM 73.4 °F - 66.2 °F 78% 29.98 in - WNW 4.6 mph - N/A   Clear
1:00 AM 73.4 °F - 66.2 °F 78% 29.95 in - NW 3.5 mph - N/A   Clear
2:00 AM 71.6 °F - 66.2 °F 83% 29.92 in - WNW 4.6 mph - N/A   Clear
3:00 AM 71.6 °F - 66.2 °F 83% 29.92 in - NW 3.5 mph - N/A   Clear
4:00 AM 69.8 °F - 66.2 °F 88% 29.92 in - West 2.3 mph - N/A   Clear
5:00 AM 68.0 °F - 64.4 °F 88% 29.89 in - West 3.5 mph - N/A   Clear
6:00 AM 68.0 °F - 64.4 °F 88% 29.92 in - Calm Calm - N/A   Clear
7:00 AM 68.0 °F - 66.2 °F 94% 29.92 in - Calm Calm - N/A   Clear
8:00 AM 71 °F - 67 °F 82% 29.96 in 12 mi WNW 3.5 mph - -   Mostly Cloudy
8:00 AM 71.6 °F - 66.2 °F 83% 29.98 in - WNW 3.5 mph - N/A   Clear
9:00 AM 75.2 °F - 69.8 °F 83% 29.98 in - WNW 8.1 mph - N/A   Clear
10:00 AM 80.6 °F 84.6 °F 71.6 °F 74% 30.01 in - West 6.9 mph - N/A   Clear
11:00 AM 86.0 °F 90.4 °F 69.8 °F 58% 29.98 in - West 5.8 mph - N/A   Clear
12:00 PM 87.8 °F 92.6 °F 69.8 °F 55% 29.95 in 6.2 mi NNW 9.2 mph - N/A   Scattered Clouds
1:00 PM 91.4 °F 95.4 °F 68.0 °F 46% 29.92 in 6.2 mi NNE 9.2 mph - N/A   Partly Cloudy
2:00 PM 92 °F - 65 °F 32% 29.86 in 12 mi West 5.8 mph - -   Scattered Clouds
2:00 PM 93.2 °F 96.2 °F 66.2 °F 41% 29.89 in 6.2 mi West 5.8 mph - N/A   Scattered Clouds
3:00 PM 91.4 °F 93.2 °F 64.4 °F 41% 29.86 in 6.2 mi West 6.9 mph - N/A   Partly Cloudy
4:00 PM 93.2 °F 94.9 °F 64.4 °F 38% 29.83 in 6.2 mi WNW 5.8 mph - N/A   Scattered Clouds
5:00 PM 91.4 °F 94.0 °F 66.2 °F 43% 29.80 in - NW 6.9 mph - N/A   Clear
6:00 PM 89.6 °F 92.2 °F 66.2 °F 46% 29.80 in - NW 4.6 mph - N/A   Clear
7:00 PM 86.0 °F 88.2 °F 66.2 °F 51% 29.80 in - NW 3.5 mph - N/A   Clear
8:00 PM 84 °F - 67 °F 46% 29.82 in 12 mi NW 2.3 mph - -  
8:00 PM 84.2 °F 86.6 °F 66.2 °F 55% 29.83 in - NW 2.3 mph - N/A   Clear
9:00 PM 82.4 °F 84.6 °F 66.2 °F 58% 29.86 in - NNW 2.3 mph - N/A   Clear
10:00 PM 78.8 °F - 66.2 °F 65% 29.86 in - NNW 3.5 mph - N/A   Clear
11:00 PM 78.8 °F - 66.2 °F 65% 29.89 in - NW 3.5 mph - N/A   Clear